[[{"header":{"parameterUnit":"m.s-1","parameterCategory":1,"la1":30.2991,"la2":30.254,"lo1":-89.0895,"lo2":-89.0444,"dy":0.0017,"dx":0.0017,"nx":28,"ny":28,"refTime":"2026-01-29T09:00:00:Z","depth":0,"parameterNumber":2,"parameterNumberName":"U-component_of_WINDS"},"data":[0,0,0,0,0,0,0,0,0,0,0,0,0,0,0,0,0,0,0,0,0,0,0,0,0,0,0,0,0,0,0,0,0,0,0,0,0,0,0,0,0,0,0,0,0,0,0,0,0,0,0,0,0,0,0,0,0,0,2.8663,2.8665,0,2.8766,2.8767,2.8769,2.8719,2.8716,2.8713,2.8711,2.8816,2.8821,2.8826,0,0,0,0,0,0,0,0,0,0,0,0,0,2.8423,2.8428,2.8663,2.8665,2.8666,2.8766,2.8767,2.8769,2.8719,2.8716,2.8713,2.871,2.8814,2.882,2.8827,0,0,0,0,0,0,0,0,0,0,0,0,0,2.8527,2.8429,2.8663,2.8653,2.8653,2.8766,2.8767,2.8769,2.872,2.8716,2.8712,2.8708,2.8812,2.882,2.8827,2.8956,0,0,2.8851,2.8855,0,0,0,0,0,0,0,0,2.8521,2.8536,2.8653,2.8654,2.8654,2.8725,2.8721,2.8832,2.8721,2.8695,2.8711,2.8706,2.8789,2.8798,2.8826,2.896,2.8965,2.8852,2.8857,2.886,2.8863,0,0,0,0,0,0,0,2.8514,2.8531,2.8704,2.8655,2.8656,2.8643,2.8654,2.8742,2.8763,2.8696,2.8693,2.8706,2.8788,2.8819,2.8829,2.8966,2.8852,2.8859,2.8864,2.8867,2.9209,2.9214,0,0,0,0,0,0,2.8507,2.8525,2.8701,2.8707,2.8577,2.8651,2.8662,2.8707,2.8762,2.8766,2.8709,2.8703,2.8807,2.8819,2.8832,2.8984,2.886,2.8868,2.8872,2.9205,2.921,2.9215,0,0,0,0,0,0,2.8502,2.8523,2.8697,2.8615,2.8636,2.8659,2.8709,2.8711,2.8741,2.8771,2.8775,2.8737,2.8805,2.8821,2.8925,2.8987,2.8871,2.8878,2.92,2.9207,2.9213,2.9291,0,0,0,0,0,0,2.8495,2.8522,2.8571,2.8617,2.8641,2.8788,2.8713,2.8716,2.8755,2.8748,2.8798,2.8802,2.8803,2.8913,2.8933,2.8996,2.8885,2.9194,2.9203,2.9211,2.9283,2.9299,2.9314,0,0,0,0,0,2.8487,2.8589,2.8574,2.8595,2.8703,2.8792,2.8806,2.8804,2.876,2.8809,2.8829,2.8801,2.8978,2.8924,2.8946,2.9013,2.919,2.9201,2.921,2.9276,2.9296,2.9313,0,0,0,0,0,0,2.855,2.8595,2.8578,2.8698,2.8742,2.8783,2.8845,2.8826,2.8883,2.8874,2.887,2.8882,2.8989,2.9011,2.8951,2.9139,2.9077,2.9092,2.912,2.9139,2.9154,2.9146,2.8891,0,0,0,0,0,2.8578,2.8646,2.8682,2.8784,2.8807,2.8823,2.8861,2.8857,2.8901,2.8919,2.8946,2.8991,2.9056,2.9099,2.9161,2.9286,2.9296,2.9343,2.9358,2.937,2.9383,2.9449,2.947,2.9247,2.9247,2.9247,0,0,2.8636,2.8669,2.8712,2.8798,2.8831,2.8902,2.8838,2.8916,2.8968,2.8931,2.9031,2.9052,2.9101,2.9216,2.9268,2.9238,2.9447,2.9383,2.9393,2.9398,2.9462,2.9483,2.9501,2.9254,2.9253,2.9252,0,0,2.8777,2.881,2.8898,2.8933,2.8983,2.8993,2.9014,2.9059,2.9072,2.9172,2.9145,2.9207,2.932,2.9356,2.9389,2.9544,2.952,2.9565,2.9644,2.9709,2.9727,2.9742,2.9796,2.9816,2.9577,2.9577,2.9577,0,2.8843,2.8949,2.8946,2.9026,2.9063,2.9033,2.9122,2.9156,2.9224,2.9251,2.9216,2.9357,2.9388,2.951,2.9548,2.9577,2.96,2.9558,2.9724,2.974,2.9754,2.9806,2.9826,2.9582,2.9582,2.9581,2.9581,0,2.9026,2.91,2.9165,2.9232,2.9277,2.9361,2.9371,2.9417,2.9409,2.9422,2.9523,2.956,2.9628,2.9657,2.9649,2.9778,2.9758,2.9724,2.9662,2.978,2.9829,2.9848,2.9589,2.9587,2.9586,2.9585,0,0,2.921,2.9274,2.9297,2.9327,2.9381,2.9437,2.952,2.9587,2.9626,2.9674,2.9742,2.9839,2.9808,2.9846,2.9842,2.9899,3.0018,2.9859,2.986,2.9886,3.016,3.0184,3.0207,3.0003,3.0007,3.001,3.0156,0,2.9354,2.9498,2.9498,2.9631,2.9698,2.967,2.9742,2.9783,2.9797,2.9856,2.9872,2.994,2.9895,2.9917,2.9973,2.9992,3.0073,2.9982,3.0066,3.0069,3.0053,3.0233,3.0258,3.0394,3.0175,3.0178,3.018,0,2.9542,2.9596,2.9735,2.9778,2.9807,2.9871,2.9932,2.9989,3.0034,3.0041,3.0083,3.007,3.0153,3.009,3.0204,3.0142,3.0176,3.0191,3.0196,3.0203,3.0131,3.0243,3.0438,3.0458,3.021,3.0208,3.0206,0,2.966,2.9768,2.9865,2.9891,2.9944,2.999,3.0014,3.0055,3.0095,3.0148,3.0174,3.0236,3.027,3.0319,3.0323,3.0277,3.0438,3.0375,3.0445,3.0445,3.0479,3.0476,3.0681,3.0504,3.0503,3.0503,3.0502,0,2.982,2.9906,2.9918,2.9978,3.0073,3.0072,3.0167,3.0187,3.0224,3.0286,3.0267,3.0326,3.0329,3.0389,3.0394,3.0487,3.0503,3.051,3.0509,3.0511,3.051,3.0532,3.0522,3.0508,3.0507,3.0506,3.0505,0,2.9968,2.998,3.0083,3.0125,3.0137,3.0206,3.0241,3.0298,3.031,3.039,3.0409,3.0429,3.0499,3.0508,3.0591,3.0593,3.0705,3.0696,3.069,3.0688,3.0757,3.075,3.0982,3.1012,3.0816,3.0818,3.082,0,3.0069,3.0134,3.0183,3.0223,3.025,3.0316,3.0356,3.0358,3.04,3.0456,3.0506,3.0574,3.0629,3.0742,3.0764,3.0827,3.0818,3.0895,3.0827,3.0826,3.0817,3.0813,3.0819,3.0907,3.091,3.0911,3.0913,0,3.0247,3.0249,3.0308,3.0369,3.0418,3.0466,3.0512,3.0546,3.0553,3.0602,3.0674,3.0716,3.08,3.0867,3.0929,3.0953,3.0935,3.0934,3.0953,3.0955,3.0948,3.0951,3.0724,3.0928,3.0927,3.0926,3.0925,3.0924,3.0373,3.043,3.0472,3.0539,3.0573,3.0616,3.067,3.069,3.075,3.0818,3.0815,3.0893,3.0936,3.1017,3.1046,3.1107,3.1082,3.111,3.1117,3.1123,3.113,3.0939,3.1118,3.1118,3.1118,3.1117,3.1117,0,3.0549,3.0575,3.0636,3.07,3.0752,3.0729,3.0778,3.0823,3.0892,3.0934,3.0988,3.1069,3.1135,3.1162,3.1225,3.1269,3.1262,3.1286,3.1282,3.1288,3.1149,3.1126,3.129,3.129,3.129,3.129,3.129,3.129,3.0646,3.074,3.0747,3.0858,3.0883,3.096,3.0989,3.1028,3.1061,3.1153,3.1208,3.1225,3.126,3.1326,3.1385,3.1391,3.1415,3.1443,3.1445,3.1315,3.1298,3.1281,3.1258,3.1448,3.1449,3.1578,3.1579,3.158]},{"header":{"parameterUnit":"m.s-1","parameterCategory":1,"la1":30.2991,"la2":30.254,"lo1":-89.0895,"lo2":-89.0444,"dy":0.0017,"dx":0.0017,"nx":28,"ny":28,"refTime":"2026-01-29T09:00:00:Z","depth":0,"parameterNumber":3,"parameterNumberName":"V-component_of_WINDS"},"data":[0,0,0,0,0,0,0,0,0,0,0,0,0,0,0,0,0,0,0,0,0,0,0,0,0,0,0,0,0,0,0,0,0,0,0,0,0,0,0,0,0,0,0,0,0,0,0,0,0,0,0,0,0,0,0,0,0,0,0.6683,0.6684,0,0.6803,0.6804,0.6805,0.6815,0.6814,0.6812,0.6811,0.6936,0.6941,0.6945,0,0,0,0,0,0,0,0,0,0,0,0,0,0.6464,0.6468,0.6683,0.6684,0.6686,0.6802,0.6804,0.6806,0.6815,0.6814,0.6812,0.681,0.6935,0.694,0.6946,0,0,0,0,0,0,0,0,0,0,0,0,0,0.6569,0.6469,0.6682,0.6704,0.6707,0.6802,0.6804,0.6806,0.6815,0.6813,0.6812,0.681,0.6933,0.694,0.6946,0.7028,0,0,0.6967,0.697,0,0,0,0,0,0,0,0,0.6563,0.6577,0.67,0.6703,0.6707,0.6792,0.6773,0.6881,0.6816,0.6775,0.6811,0.6809,0.689,0.69,0.6927,0.7034,0.7039,0.6968,0.6972,0.6975,0.6977,0,0,0,0,0,0,0,0.6555,0.6572,0.673,0.6701,0.6706,0.6709,0.6722,0.6793,0.6842,0.6778,0.6779,0.6793,0.6891,0.692,0.693,0.7041,0.6968,0.6974,0.6978,0.6981,0.7221,0.7223,0,0,0,0,0,0,0.6544,0.6566,0.6726,0.6734,0.6628,0.6714,0.6729,0.6766,0.6841,0.6851,0.6794,0.6793,0.691,0.6922,0.6935,0.7035,0.6975,0.6981,0.6985,0.7219,0.7221,0.7224,0,0,0,0,0,0,0.6539,0.6558,0.6722,0.665,0.6671,0.672,0.6763,0.677,0.6799,0.6854,0.6862,0.6815,0.6909,0.6925,0.7005,0.704,0.6984,0.6991,0.7216,0.7219,0.7223,0.7237,0,0,0,0,0,0,0.6533,0.6556,0.6587,0.6651,0.6675,0.6789,0.6765,0.6774,0.681,0.6809,0.6875,0.6884,0.6908,0.6994,0.7011,0.7048,0.6996,0.7213,0.7217,0.7221,0.7234,0.7241,0.7247,0,0,0,0,0,0.6525,0.6587,0.6589,0.6608,0.6715,0.6791,0.6805,0.6831,0.6813,0.6845,0.688,0.6882,0.7033,0.7002,0.7022,0.7061,0.7211,0.7216,0.7221,0.7231,0.724,0.7247,0,0,0,0,0,0,0.6528,0.6596,0.6599,0.6683,0.6731,0.6793,0.6834,0.6839,0.6894,0.6891,0.6921,0.6936,0.7015,0.7046,0.701,0.7144,0.712,0.7129,0.7121,0.713,0.7136,0.7127,0.7002,0,0,0,0,0,0.6538,0.6594,0.6651,0.672,0.6744,0.6785,0.6819,0.6834,0.6886,0.6906,0.6947,0.6998,0.7056,0.7094,0.7151,0.7238,0.7253,0.7275,0.7281,0.7286,0.7294,0.7342,0.7353,0.7241,0.7241,0.7241,0,0,0.6561,0.6605,0.6638,0.6722,0.6761,0.6819,0.6802,0.6864,0.6907,0.6916,0.6994,0.7025,0.7083,0.7167,0.7206,0.7195,0.7328,0.7293,0.7296,0.7302,0.7349,0.7359,0.7369,0.7244,0.7243,0.7243,0,0,0.6632,0.667,0.6732,0.6771,0.683,0.6857,0.6871,0.6932,0.6953,0.7031,0.7039,0.7091,0.7191,0.7233,0.7267,0.7352,0.7356,0.7369,0.7403,0.745,0.7459,0.7467,0.7498,0.7509,0.7377,0.7377,0.7377,0,0.6652,0.6739,0.6764,0.6825,0.6862,0.6871,0.6935,0.6972,0.7047,0.7072,0.7059,0.7185,0.7224,0.7318,0.7338,0.7365,0.7384,0.7363,0.7455,0.7464,0.7472,0.7502,0.7513,0.7378,0.7378,0.7378,0.7378,0,0.6762,0.6822,0.6865,0.6936,0.6977,0.7039,0.7074,0.7113,0.7125,0.7153,0.7232,0.728,0.7347,0.737,0.7382,0.7465,0.7457,0.7449,0.7426,0.7483,0.7512,0.7524,0.738,0.738,0.7379,0.7379,0,0,0.6839,0.6922,0.6938,0.697,0.7035,0.7083,0.7145,0.7209,0.7243,0.7293,0.7347,0.7431,0.7425,0.7463,0.748,0.7521,0.7586,0.7509,0.751,0.7522,0.7681,0.7687,0.77,0.7588,0.759,0.7592,0.7676,0,0.6918,0.7029,0.7053,0.7149,0.7205,0.7214,0.7269,0.7315,0.7342,0.7394,0.7425,0.7484,0.747,0.7494,0.7535,0.7569,0.7618,0.7563,0.7639,0.7642,0.7626,0.7715,0.7721,0.7798,0.7687,0.7689,0.7691,0,0.7025,0.7077,0.7179,0.7236,0.7261,0.7309,0.737,0.7419,0.7472,0.7489,0.7531,0.7544,0.761,0.7582,0.7673,0.7636,0.7668,0.7689,0.7693,0.7702,0.7671,0.7727,0.7823,0.7835,0.7709,0.7707,0.7706,0,0.7072,0.7168,0.7241,0.7269,0.7337,0.7371,0.7402,0.7452,0.7489,0.7542,0.7567,0.7627,0.7661,0.7707,0.7736,0.7713,0.7825,0.78,0.7842,0.7842,0.7867,0.7865,0.7971,0.7886,0.7885,0.7885,0.7885,0,0.7158,0.722,0.7263,0.7309,0.7378,0.7405,0.7473,0.7503,0.7548,0.76,0.7611,0.766,0.7694,0.7747,0.7769,0.7842,0.7857,0.7873,0.7879,0.7873,0.7871,0.7896,0.7891,0.7888,0.7888,0.7887,0.7886,0,0.7223,0.7254,0.7335,0.7393,0.7409,0.7458,0.7508,0.7552,0.7579,0.7645,0.7661,0.7705,0.7768,0.78,0.7879,0.7894,0.7976,0.7978,0.7959,0.7961,0.8002,0.7998,0.8128,0.8147,0.8048,0.8049,0.805,0,0.7276,0.7324,0.7387,0.7422,0.7452,0.7509,0.7547,0.7574,0.7613,0.7676,0.7713,0.7777,0.7829,0.793,0.7968,0.8029,0.8033,0.8074,0.8042,0.8035,0.8035,0.8032,0.8037,0.808,0.8081,0.8082,0.8083,0,0.7368,0.7381,0.7434,0.7493,0.7538,0.7586,0.7633,0.7661,0.7697,0.774,0.7804,0.7845,0.7925,0.7988,0.8051,0.8083,0.8089,0.8092,0.8105,0.81,0.8087,0.8096,0.7975,0.8089,0.8089,0.8088,0.8088,0.8088,0.7429,0.7472,0.7523,0.7582,0.762,0.7664,0.7709,0.7741,0.7795,0.7862,0.7875,0.7943,0.7995,0.808,0.8113,0.8168,0.8159,0.8178,0.8183,0.8187,0.819,0.8078,0.8179,0.8179,0.8179,0.8179,0.8179,0,0.7522,0.7555,0.7609,0.7674,0.7721,0.7721,0.7774,0.7813,0.7873,0.792,0.7971,0.8045,0.8106,0.8149,0.8211,0.8246,0.8251,0.8262,0.826,0.8267,0.8194,0.8176,0.8257,0.8257,0.8257,0.8257,0.8257,0.8257,0.7575,0.7648,0.7667,0.7759,0.7792,0.7858,0.7888,0.7929,0.7967,0.8048,0.8099,0.8126,0.8172,0.8237,0.8294,0.8305,0.8328,0.8339,0.835,0.8281,0.8273,0.8265,0.8249,0.8343,0.8343,0.842,0.842,0.8421]}]]